COSMOS 1375 DEB, 16377

Orbit data source: Space-Track

COSMOS 1375 DEB, 16377 is space debris in LEO originally from a launch on Sun, 06 Jun 1982 UTC launched from the Plesetsk Missile And Space Complex (PKMTR). Debris objects in space refer to the collection of defunct objects orbiting the Earth. Examples of debris include non-operational satellites, rocket bodies, and fragments generated from explosions, collisions, or faulty payload assembly.

Loading next visibility...
Identifier
16377, 1982-055R
Orbit
LEO
Country
Flag of CISCIS
Related business
Manufacturer
Unknown
Mission
Spacecraft
Bus & Motor
Unknown
Mass
Unknown
Launch date (UTC)
1982-06-06 (44 years ago)
Launch vehicle
Unknown
Launch site
Plesetsk Missile And Space Complex (PKMTR)
Object type
Payload
Rocket body
Debris
Shape & HBR
Unknown shape, 0.1 m
Radar Cross Section
Medium (>0.1 m² and <1 m²)

Expand to show TLE details & history
Last TLE update: 3 days ago

TLE from 3 days ago
0 COSMOS 1375 DEB
1 16377U 82055R   26170.67343711  .00000631  00000-0  42926-3 0  9998
2 16377  65.8229 354.7006 0033658  13.7733  59.6728 14.06792458 67378
Epoch: 2026-06-19T16:09Z
TLE epoch observation values (Epoch: 2026-06-19T16:09:44.966Z)
Latitude
61.27751°
Longitude
-101.05628°
Altitude
867.665 km
Speed
7.431 km/s
True Right ascension
03h 17m 07s
True Declination
61° 08' 04"
Sunlit
Object was in daylight at epoch
Visualization orbit readout
Latitude
Unknown
Longitude
Unknown
Altitude
Unknown
Speed
Unknown
Apparent Right ascension
Unknown
Apparent Declination
Unknown
Sunlit
N/A
Visualization observer readout
Local Sidereal Time
03:41:34
Azimuth
Unknown
Elevation
Unknown
Doppler factor
Unknown
Orbital elements
Apogee altitude
893.256 km
Perigee altitude
844.472 km
Semi-major axis
7,247.001 km
Eccentricity
0.00337
Inclination
65.8229°
RAAN
354.7006°
Arg. of periapsis
13.7733°
True anomaly
60.00642°
Mean anomaly
59.6728°
Eccentric anomaly
59.83954°
Mean motion
3.51808 °/min
Orbital period
102.33 mins
BSTAR
0.00042926
Loading maneuver chart data...
Computing Atmospheric mass density...
Loading historical data...
Loading historical data...
Loading historical data...
Loading historical data...
Loading historical data...
Loading historical data...
Loading historical data...

Documentation

Showing up to 5 results
|